Houston / Dunn Helistop, TX

4:47 PM CDT on April 30, 2017 (GMT -0500)
Houston / Dunn Helistop

Weather History for KMCJ - July, 2013

Change the Weather History Date:

Tuesday, July 2, 2013

  Actual Average (KHOU) Record (KHOU)
Temperature  
Mean Temperature 85 °F -  
Max Temperature 95 °F 89 °F 104 °F (1894)
Min Temperature 75 °F 73 °F 66 °F (1924)
Cooling Degree Days 20    
Growing Degree Days 35 (Base 50)    
Moisture  
Dew Point 59 °F    
Average Humidity 44    
Maximum Humidity 61    
Minimum Humidity 25    
Precipitation  
Precipitation 0.00 in - - ()
Sea Level Pressure  
Sea Level Pressure 29.94 in    
Wind  
Wind Speed 5 mph (NE)    
Max Wind Speed 14 mph    
Max Gust Speed 18 mph    
Visibility 7 miles    
Events      
Averages and records for this station are not official NWS values.
T = Trace of Precipitation, MM = Missing Value Source: NWS Daily Summary

Daily Weather History Graph

Daily Weather History Graph

Search for Another Location

Airport or City:

Trip Planner

Search our weather history database for the weather conditions in past years. The results will help you decide how hot, cold, wet, or windy it might be!

Date:

Astronomy

Jul. 02, 2013 Rise Set
Actual Time 6:25 AM CDT 8:26 PM CDT
Civil Twilight 5:58 AM CDT 8:53 PM CDT
Nautical Twilight 5:25 AM CDT 9:26 PM CDT
Astronomical Twilight 4:49 AM CDT 10:01 PM CDT
Moon 2:16 AM CDT (7/2) 3:50 PM CDT (7/2)
Length of Visible Light 14h 55m
Length of Day
14h 00m
Waning Crescent, 26% of the Moon is Illuminated
Jul 2
Waning Crescent
Jul 8
New
Jul 15
First Quarter
Jul 22
Full
Jul 29
Last Quarter

Hourly Weather History & Observations

Time (CDT) Temp. Heat Index Dew Point Humidity Pressure Visibility Wind Dir Wind Speed Gust Speed Precip Events Conditions
12:15 AM 82.4 °F 82.0 °F 57.2 °F 42% 29.93 in 9.0 mi NNW 3.5 mph - N/A   Clear
12:35 AM 82.4 °F 82.0 °F 57.2 °F 42% 29.93 in 7.0 mi NNW 3.5 mph - N/A   Clear
12:55 AM 82.4 °F 82.5 °F 59.0 °F 45% 29.92 in 8.0 mi Calm Calm - N/A   Scattered Clouds
1:15 AM 82.4 °F 82.5 °F 59.0 °F 45% 29.92 in 10.0 mi Calm Calm - N/A   Mostly Cloudy
1:35 AM 80.6 °F 81.1 °F 59.0 °F 48% 29.92 in 7.0 mi Calm Calm - N/A   Partly Cloudy
1:55 AM 80.6 °F 81.1 °F 59.0 °F 48% 29.92 in 4.0 mi Calm Calm - N/A   Clear
2:15 AM 80.6 °F 81.1 °F 59.0 °F 48% 29.92 in 10.0 mi Calm Calm - N/A   Clear
2:35 AM 78.8 °F - 59.0 °F 51% 29.92 in 6.0 mi NNW 5.8 mph - N/A   Clear
2:55 AM 78.8 °F - 59.0 °F 51% 29.92 in 8.0 mi NW 3.5 mph - N/A   Partly Cloudy
3:15 AM 78.8 °F - 59.0 °F 51% 29.92 in 9.0 mi North 6.9 mph - N/A   Partly Cloudy
3:35 AM 77.0 °F - 59.0 °F 54% 29.92 in 8.0 mi North 8.1 mph - N/A   Clear
3:55 AM 77.0 °F - 59.0 °F 54% 29.92 in 5.0 mi NNE 8.1 mph - N/A   Clear
4:15 AM 77.0 °F - 59.0 °F 54% 29.93 in 5.0 mi NNE 8.1 mph - N/A   Partly Cloudy
4:35 AM 75.2 °F - 59.0 °F 57% 29.93 in 5.0 mi North 6.9 mph - N/A   Partly Cloudy
4:55 AM 75.2 °F - 59.0 °F 57% 29.93 in 5.0 mi NNE 5.8 mph - N/A   Clear
5:15 AM 75.2 °F - 59.0 °F 57% 29.93 in 4.0 mi NNE 6.9 mph - N/A   Clear
5:35 AM 75.2 °F - 59.0 °F 57% 29.94 in 5.0 mi NNE 5.8 mph - N/A   Clear
5:55 AM 75.2 °F - 59.0 °F 57% 29.94 in 5.0 mi NE 6.9 mph - N/A   Partly Cloudy
6:15 AM 75.2 °F - 60.8 °F 61% 29.95 in 5.0 mi NNE 5.8 mph - N/A   Scattered Clouds
6:35 AM 75.2 °F - 60.8 °F 61% 29.95 in 5.0 mi NE 6.9 mph - N/A   Partly Cloudy
6:55 AM 75.2 °F - 60.8 °F 61% 29.96 in 7.0 mi ENE 4.6 mph - N/A   Scattered Clouds
7:15 AM 77.0 °F - 60.8 °F 57% 29.96 in 8.0 mi ENE 6.9 mph - N/A   Partly Cloudy
7:35 AM 77.0 °F - 60.8 °F 57% 29.96 in 8.0 mi East 8.1 mph - N/A   Clear
7:55 AM 77.0 °F - 60.8 °F 57% 29.97 in 7.0 mi ENE 9.2 mph - N/A   Clear
8:15 AM 77.0 °F - 60.8 °F 57% 29.98 in 7.0 mi NE 5.8 mph - N/A   Clear
8:35 AM 80.6 °F 81.5 °F 60.8 °F 51% 29.98 in 5.0 mi ENE 5.8 mph - N/A   Clear
9:15 AM 82.4 °F 82.5 °F 59.0 °F 45% 29.98 in 6.0 mi NE 6.9 mph - N/A   Clear
9:35 AM 84.2 °F 83.8 °F 59.0 °F 42% 29.98 in 8.0 mi ENE 9.2 mph - N/A   Clear
9:55 AM 84.2 °F 83.8 °F 59.0 °F 42% 29.98 in 8.0 mi East 6.9 mph - N/A   Clear
10:15 AM 86.0 °F 85.4 °F 59.0 °F 40% 29.98 in 8.0 mi East 9.2 mph - N/A   Clear
10:35 AM 86.0 °F 85.4 °F 59.0 °F 40% 29.98 in 8.0 mi ENE 5.8 mph - N/A   Clear
10:55 AM 89.6 °F 88.1 °F 57.2 °F 33% 29.98 in 5.0 mi South 3.5 mph - N/A   Clear
11:15 AM 87.8 °F 86.5 °F 57.2 °F 35% 29.98 in 6.0 mi NE 5.8 mph - N/A   Partly Cloudy
11:35 AM 89.6 °F 87.7 °F 55.4 °F 31% 29.98 in 5.0 mi North 3.5 mph - N/A   Clear
11:55 AM 91.4 °F 89.9 °F 57.2 °F 31% 29.98 in 7.0 mi NE 5.8 mph - N/A   Partly Cloudy
12:15 PM 89.6 °F 88.1 °F 57.2 °F 33% 29.98 in 5.0 mi North 5.8 mph - N/A   Scattered Clouds
12:35 PM 89.6 °F 87.7 °F 55.4 °F 31% 29.97 in 5.0 mi NNW 5.8 mph - N/A   Mostly Cloudy
12:55 PM 91.4 °F 89.4 °F 55.4 °F 29% 29.97 in 7.0 mi NNW 8.1 mph - N/A   Mostly Cloudy
1:15 PM 91.4 °F 89.4 °F 55.4 °F 29% 29.96 in 8.0 mi WNW 4.6 mph - N/A   Partly Cloudy
1:35 PM 91.4 °F - 51.8 °F 26% 29.95 in 5.0 mi NW 4.6 mph 17.3 mph N/A   Scattered Clouds
1:55 PM 91.4 °F 89.4 °F 55.4 °F 29% 29.95 in 7.0 mi WNW 8.1 mph - N/A   Scattered Clouds
2:15 PM 93.2 °F 91.3 °F 55.4 °F 28% 29.94 in 7.0 mi East 4.6 mph - N/A   Scattered Clouds
2:35 PM 91.4 °F 89.1 °F 53.6 °F 28% 29.93 in 7.0 mi Calm Calm - N/A   Scattered Clouds
2:55 PM 91.4 °F 89.1 °F 53.6 °F 28% 29.92 in 7.0 mi ENE 3.5 mph - N/A   Scattered Clouds
3:15 PM 91.4 °F 89.1 °F 53.6 °F 28% 29.92 in 7.0 mi North 9.2 mph - N/A   Mostly Cloudy
3:35 PM 95.0 °F 92.7 °F 53.6 °F 25% 29.91 in 6.0 mi NNE 6.9 mph - N/A   Scattered Clouds
3:55 PM 93.2 °F 90.8 °F 53.6 °F 26% 29.91 in 7.0 mi Calm Calm - N/A   Clear
4:15 PM 95.0 °F 93.0 °F 55.4 °F 26% 29.91 in 6.0 mi East 11.5 mph - N/A   Scattered Clouds
4:35 PM 93.2 °F 91.3 °F 55.4 °F 28% 29.90 in 7.0 mi ENE 6.9 mph - N/A   Mostly Cloudy
4:55 PM 93.2 °F 90.8 °F 53.6 °F 26% 29.90 in 9.0 mi ENE 6.9 mph 16.1 mph N/A   Scattered Clouds
5:15 PM 93.2 °F 90.8 °F 53.6 °F 26% 29.89 in 7.0 mi NNE 6.9 mph - N/A   Partly Cloudy
5:35 PM 93.2 °F 90.8 °F 53.6 °F 26% 29.89 in 7.0 mi NE 6.9 mph - N/A   Scattered Clouds
5:55 PM 91.4 °F 89.1 °F 53.6 °F 28% 29.89 in 8.0 mi ENE 5.8 mph - N/A   Partly Cloudy
6:15 PM 91.4 °F 89.4 °F 55.4 °F 29% 29.89 in 9.0 mi ESE 9.2 mph - N/A   Scattered Clouds
6:35 PM 89.6 °F 87.7 °F 55.4 °F 31% 29.90 in 5.0 mi ESE 9.2 mph - N/A   Mostly Cloudy
6:55 PM 89.6 °F 89.5 °F 60.8 °F 38% 29.90 in 9.0 mi SSE 6.9 mph - N/A   Scattered Clouds
7:15 PM 86.0 °F 86.1 °F 60.8 °F 43% 29.91 in 10.0 mi SE 8.1 mph 16.1 mph N/A   Mostly Cloudy
7:35 PM 86.0 °F 86.6 °F 62.6 °F 45% 29.92 in 10.0 mi South 13.8 mph - N/A   Mostly Cloudy
7:55 PM 86.0 °F 86.6 °F 62.6 °F 45% 29.91 in 9.0 mi South 12.7 mph 18.4 mph N/A   Scattered Clouds
8:15 PM 84.2 °F 85.0 °F 62.6 °F 48% 29.92 in 9.0 mi South 12.7 mph 16.1 mph N/A   Clear
8:35 PM 84.2 °F 85.0 °F 62.6 °F 48% 29.93 in 10.0 mi South 9.2 mph - N/A   Clear
8:55 PM 82.4 °F 83.9 °F 64.4 °F 54% 29.94 in 10.0 mi South 9.2 mph 16.1 mph N/A   Mostly Cloudy
9:15 PM 82.4 °F 83.9 °F 64.4 °F 54% 29.94 in 10.0 mi South 6.9 mph - N/A   Scattered Clouds
9:35 PM 82.4 °F 83.9 °F 64.4 °F 54% 29.95 in 10.0 mi South 9.2 mph - N/A   Partly Cloudy
9:55 PM 82.4 °F 83.9 °F 64.4 °F 54% 29.95 in 9.0 mi SW 4.6 mph - N/A   Scattered Clouds
10:15 PM 80.6 °F 82.3 °F 64.4 °F 58% 29.95 in 10.0 mi WSW 10.4 mph 17.3 mph N/A   Clear
10:35 PM 78.8 °F - 64.4 °F 61% 29.96 in 9.0 mi WSW 9.2 mph - N/A   Clear
10:55 PM 78.8 °F - 62.6 °F 57% 29.96 in 10.0 mi WSW 8.1 mph - N/A   Clear
11:15 PM 77.0 °F - 62.6 °F 61% 29.96 in 10.0 mi SW 6.9 mph 16.1 mph N/A   Clear
11:35 PM 77.0 °F - 62.6 °F 61% 29.97 in 10.0 mi SW 4.6 mph - N/A   Clear
11:55 PM 77.0 °F - 62.6 °F 61% 29.97 in 10.0 mi WSW 5.8 mph - N/A   Clear